Location: Fort Wayne
(41.1310°N, 85.1290°W)
Time: 11:45:59
(UTC-04:00)

Iridium 37 - Visible Passes

Search period start: 24 May 2016 00:00
Search period end: 03 June 2016 00:00
Orbit: 776 x 779 km, 86.4° (Epoch: 23 May)

Date Brightness Start Highest point End Pass type
(mag) Time Alt. Az. Time Alt. Az. Time Alt. Az.
24 May 5.7 05:11:13 10° N 05:16:27 77° E 05:21:39 10° S visible
25 May 6.8 04:37:54 10° NNE 04:42:51 41° E 04:47:46 10° SSE visible
26 May 7.7 04:04:58 10° NNE 04:09:07 23° ENE 04:13:13 10° SE visible
27 May 8.2 03:32:58 10° NE 03:35:14 13° ENE 03:37:31 10° E visible
27 May 5.5 05:11:20 10° N 05:16:33 74° W 05:21:44 10° S visible
28 May 6.0 04:37:51 10° N 04:43:01 60° E 04:48:10 10° SSE visible
29 May 7.1 04:04:40 10° NNE 04:09:22 33° E 04:14:02 10° SE visible
30 May 7.9 03:31:59 10° NNE 03:35:35 18° ENE 03:39:09 10° ESE visible
30 May 5.8 05:11:34 10° NNW 05:16:36 51° W 05:21:37 10° SSW visible
31 May 5.5 04:37:54 10° N 04:43:09 87° E 04:48:22 10° S visible
01 Jun 6.4 04:04:31 10° N 04:09:34 47° E 04:14:35 10° SSE visible
02 Jun 7.4 03:31:31 10° NNE 03:35:52 26° ENE 03:40:12 10° SE visible
02 Jun 6.3 05:11:55 10° NNW 05:16:37 35° W 05:21:18 10° SSW visible
